This demonstration page uses our WeatherBlox Daily Observations layout. Learn more.

Left ArrowRight Arrow

34.74481, -87.66753

Hourly Observations for June 30, 2019

Temp ( °F °C ) Dew Point ( °F °C ) Humidity (%) Winds ( mph kmh ) Pressure ( in mb ) Visibility ( mi km ) Precip ( " mm )
12:33 am 00:33 Mostly Clear with Mist and Fog 70 21 68 20 94 94 Calm 30.13 1020 2 2 0.00 0.00
12:44 am 00:44 Mostly Clear with Mist and Fog 68 20 68 20 100 100 Calm 30.13 1020 3 5 0.00 0.00
12:48 am 00:48 Mostly Clear with Mist and Fog 70 21 68 20 94 94 Calm 30.12 1020 2 3 0.00 0.00
12:56 am 00:56 Mostly Clear with Mist and Fog 69 20.6 69 20.6 100 100 Calm 28.28 958 3 4 0.00 0.00
1:08 am 01:08 Clear with Mist and Fog 70 21 68 20 94 94 Calm 30.12 1020 4 6 0.00 0.00
1:34 am 01:34 Clear with Mist and Fog 70 21 68 20 94 94 Calm 30.11 1020 2 3 0.00 0.00
1:51 am 01:51 Mostly Cloudy with Mist and Fog 70 21 68 20 94 94 Calm 30.10 1019 1 2 0.00 0.00
1:56 am 01:56 Mostly Cloudy with Mist and Fog 69 20.6 68 20 96 96 Calm 28.26 957 1 1 0.00 0.00
2:01 am 02:01 Mostly Clear with Mist and Fog 68 20 68 20 100 100 Calm 30.11 1020 1 2 0.00 0.00
2:15 am 02:15 Mostly Clear with Mist and Fog 68 20 68 20 100 100 Calm 30.11 1020 3 4 0.00 0.00
2:36 am 02:36 Partly Cloudy with Mist and Fog 68 20 68 20 100 100 Calm 30.11 1020 6 10 0.00 0.00
2:48 am 02:48 Partly Cloudy with Mist and Fog 68 20 66 19 94 94 Calm 30.12 1020 2 3 0.00 0.00
2:54 am 02:54 Mostly Cloudy with Mist and Fog 68 20 66 19 94 94 Calm 30.11 1020 1 1 0.00 0.00
2:56 am 02:56 Mostly Cloudy with Mist and Fog 68 20 67 19.4 96 96 Calm 28.26 957 1 1 0.00 0.00
3:07 am 03:07 Mostly Cloudy with Mist and Fog 68 20 66 19 94 94 Calm 30.11 1020 1 2 0.00 0.00
3:12 am 03:12 Mostly Cloudy with Mist and Fog 68 20 66 19 94 94 Calm 30.11 1020 2 3 0.00 0.00
3:14 am 03:14 Partly Cloudy with Mist and Fog 68 20 68 20 100 100 Calm 30.11 1020 3 5 0.00 0.00
3:40 am 03:40 Clear with Mist and Fog 66 19 66 19 100 100 Calm 30.10 1019 2 3 0.00 0.00
3:45 am 03:45 Clear with Mist and Fog 66 19 66 19 100 100 Calm 30.10 1019 1 1 0.00 0.00
3:49 am 03:49 Mostly Cloudy with Mist and Fog 66 19 66 19 100 100 Calm 30.11 1020 1 2 0.00 0.00
3:56 am 03:56 Mostly Clear with Mist and Fog 67 19.4 67 19.4 100 100 Calm 28.27 957 2 2 0.00 0.00
4:14 am 04:14 Mostly Clear with Mist and Fog 68 20 66 19 94 94 E 5 7 30.11 1020 3 5 0.00 0.00
4:56 am 04:56 Partly Cloudy with Mist and Fog 68 20 68 20 100 100 Calm 28.37 961 4 6 0.00 0.00
5:56 am 05:56 Sunny 68 20 67 19.4 96 96 Calm 28.35 960 8 13 0.00 0.00
6:56 am 06:56 Sunny 70 21.1 70 21.1 100 100 Calm 28.38 961 8 13 0.00 0.00
7:12 am 07:12 Mostly Cloudy 72 22 70 21 94 94 Calm 30.12 1020 7 11 0.00 0.00
7:56 am 07:56 Partly Cloudy 72 22.2 71 21.7 97 97 Calm 28.38 961 7 11 0.00 0.00
8:21 am 08:21 Mostly Cloudy 73 23 72 22 94 94 Calm 30.13 1020 10 16 0.00 0.00
8:56 am 08:56 Mostly Cloudy 76 24.4 72 22.2 88 88 S 3 6 28.34 960 10 16 0.00 0.00
9:12 am 09:12 Partly Cloudy 75 24 72 22 89 89 Calm 30.11 1020 10 16 0.00 0.00
9:56 am 09:56 Sunny 77 25 72 22.2 85 85 VRB 3 6 28.34 960 10 16 0.00 0.00
10:56 am 10:56 Mostly Cloudy 80 26.7 72 22.2 76 76 NW 3 6 28.33 960 10 16 0.00 0.00
11:15 am 11:15 Partly Cloudy 82 28 72 22 70 70 VRB 3 6 30.11 1020 10 16 0.00 0.00
11:56 am 11:56 Mostly Cloudy 83 28.3 72 22.2 70 70 N 5 7 28.31 959 10 16 0.00 0.00
12:35 pm 12:35 Cloudy with Thunderstorms 77 25 72 22 83 83 SW 7 11 30.11 1020 10 16 0.01 0.25
12:56 pm 12:56 Cloudy with Rain 75 23.9 70 21.1 84 84 S 5 7 28.36 961 10 16 0.02 0.51
1:11 pm 13:11 Cloudy with Nearby Thunderstorms 73 23 70 21 89 89 SSW 5 7 30.11 1019 10 16 0.00 0.03
1:23 pm 13:23 Cloudy with Nearby Thunderstorms 75 24 72 22 89 89 S 3 6 30.09 1019 10 16 0.00 0.03
1:52 pm 13:52 Mostly Sunny 79 26 72 22 79 79 Calm 30.09 1019 10 16 0.00 0.03
1:56 pm 13:56 Mostly Sunny 79 26.1 71 21.7 77 77 Calm 28.30 959 10 16 0.00 0.03
2:56 pm 14:56 Sunny 84 28.9 72 22.2 67 67 Calm 28.25 957 9 14 0.00 0.00
3:56 pm 15:56 Sunny 86 30 70 21.1 59 59 VRB 3 6 28.22 956 10 16 0.00 0.00
4:56 pm 16:56 Sunny 88 31.1 70 21.1 55 55 VRB 5 7 28.18 954 10 16 0.00 0.00
5:56 pm 17:56 Sunny 86 30 70 21.1 59 59 WSW 5 7 28.18 954 10 16 0.00 0.00
6:56 pm 18:56 Sunny 82 27.8 73 22.8 74 74 SW 5 7 28.18 954 10 16 0.00 0.00
7:56 pm 19:56 Sunny 78 25.6 73 22.8 85 85 Calm 28.20 955 10 16 0.00 0.00
8:56 pm 20:56 Clear 75 23.9 72 22.2 90 90 Calm 28.21 955 10 16 0.00 0.00
9:56 pm 21:56 Clear 73 22.8 72 22.2 96 96 Calm 28.28 958 10 16 0.00 0.00
10:56 pm 22:56 Clear 72 22.2 71 21.7 97 97 Calm 28.27 957 7 11 0.00 0.00
11:56 pm 23:56 Partly Cloudy 71 21.7 70 21.1 96 96 SSW 3 6 28.26 957 10 16 0.00 0.00

Powered by AerisWeather